TimeEDT,TemperatureF,Dew PointF,Humidity,Sea Level PressureIn,VisibilityMPH,Wind Direction,Wind SpeedMPH,Gust SpeedMPH,PrecipitationIn,Events,Conditions,WindDirDegrees,DateUTC
12:57 AM,54.0,52.0,93,30.19,10.0,Calm,Calm,-,N/A,,Clear,0,2012-10-24 04:57:00
1:57 AM,55.0,53.1,93,30.19,10.0,Calm,Calm,-,N/A,,Clear,0,2012-10-24 05:57:00
2:57 AM,57.0,55.0,93,30.17,10.0,Calm,Calm,-,N/A,,Clear,0,2012-10-24 06:57:00
3:57 AM,57.0,54.0,89,30.16,10.0,Calm,Calm,-,N/A,,Clear,0,2012-10-24 07:57:00
4:57 AM,57.0,54.0,89,30.17,10.0,Calm,Calm,-,N/A,,Clear,0,2012-10-24 08:57:00
5:57 AM,57.9,57.0,97,30.18,7.0,Calm,Calm,-,0.01,,Partly Cloudy,0,2012-10-24 09:57:00
6:57 AM,57.0,55.9,96,30.20,9.0,NNW,4.6,-,N/A,,Clear,330,2012-10-24 10:57:00
7:57 AM,57.0,55.0,93,30.21,7.0,North,5.8,-,N/A,,Scattered Clouds,350,2012-10-24 11:57:00
8:57 AM,61.0,57.0,87,30.21,10.0,NNW,6.9,-,N/A,,Scattered Clouds,340,2012-10-24 12:57:00
9:57 AM,69.1,60.1,73,30.21,10.0,NNW,3.5,-,N/A,,Partly Cloudy,330,2012-10-24 13:57:00
10:57 AM,73.9,61.0,64,30.20,10.0,NNW,5.8,-,N/A,,Partly Cloudy,330,2012-10-24 14:57:00
11:57 AM,77.0,61.0,58,30.19,10.0,NNW,3.5,-,N/A,,Scattered Clouds,340,2012-10-24 15:57:00
12:57 PM,77.0,61.0,58,30.17,10.0,SSW,4.6,-,N/A,,Scattered Clouds,210,2012-10-24 16:57:00
1:57 PM,78.1,62.1,58,30.14,10.0,SSW,6.9,-,N/A,,Scattered Clouds,200,2012-10-24 17:57:00
5:57 PM,72.0,63.0,73,30.14,10.0,South,6.9,-,N/A,,Partly Cloudy,170,2012-10-24 21:57:00
6:57 PM,70.0,64.0,81,30.15,10.0,South,4.6,-,N/A,,Clear,170,2012-10-24 22:57:00
7:57 PM,71.1,64.9,81,30.16,10.0,South,6.9,-,N/A,,Clear,170,2012-10-24 23:57:00
8:57 PM,70.0,64.0,81,30.16,10.0,South,3.5,-,N/A,,Clear,180,2012-10-25 00:57:00
9:57 PM,64.9,62.1,90,30.17,10.0,Calm,Calm,-,N/A,,Clear,0,2012-10-25 01:57:00
10:57 PM,62.1,62.1,100,30.16,9.0,Calm,Calm,-,N/A,,Unknown,0,2012-10-25 02:57:00
11:57 PM,62.1,60.1,93,30.16,10.0,Calm,Calm,-,N/A,,Unknown,0,2012-10-25 03:57:00